Regional Weather Roundup
Issued by NWS

Home | Current Version | Previous Version | Text Only | Print | Product List | Glossary On
Versions: 1 2 3 4 5 6 7 8 9 10 11 12 13 14 15 16 17 18 19 20 21 22 23 24 25 26 27 28 29 30 31 32 33 34 35 36 37 38 39 40 41 42 43 44 45 46 47 48 49 50
375
ASCA42 TJSJ 291310
RWRPR
PUERTO RICO/U.S. VIRGIN ISLANDS HOURLY WEATHER ROUNDUP
NATIONAL WEATHER SERVICE SAN JUAN PR
900 AM AST SUN MAY 29 2016

PRZ001-004-291400-
PUERTO RICO

CITY           SKY/WX    TMP DP  RH WIND       PRES   REMARKS
SAN JUAN LMM   PTSUNNY   82  77  83 E15       30.03R HX  91
AGUADILLA      SUNNY     84  73  70 E9        30.03S HX  91
CEIBA          LGT RAIN  79  75  89 E3        30.05S
$$

PRZ006-007-291400-
U.S. VIRGIN ISLANDS

CITY           SKY/WX    TMP DP  RH WIND       PRES   REMARKS
CHARLOTTE AMA  PTSUNNY   86  75  70 E10       30.02S HX  95
CHRISTIANSTED  MOSUNNY   82  75  78 NE7       30.03S
$$

HOURLY WEATHER ROUNDUP FOR THE NEWS MEDIA

CITY           SKY/WX    TMP DP  RH WIND       PRES   REMARKS
ORLANDO        SUNNY     80  70  71 CALM      30.08R
NEW YORK       PTSUNNY   72  55  55 S8        30.16S
NEWARK         PTSUNNY   79  58  48 SW8       30.14S
CHICAGO        MOSUNNY   70  62  76 SW13      29.98S
HARTFORD       MOSUNNY   70  61  73 N5        30.17R
DALLAS         LGT RAIN  68  65  90 NW7       30.10F
PHILADELPHIA   CLOUDY    73  62  68 SW6       30.16F
LOS ANGELES    CLOUDY    59  55  87 SW5       29.98R
WASHINGTON DC  PTSUNNY   73  64  73 S6        30.15S



USA.gov is the U.S. government's official web portal to all federal, state and local government web resources and services.